Visibility
15.0 15.0 15.0 15.0 15.0 15.0 15.0 15.0 15.0 15.0 15.0 15.0 15.0 15.0 15.0 15.0 15.0 15.0 15.0 15.0 14.7 15.0 15.0 15.0 15.0 15.0 7.7 13.2 13.2 0.3 0.1 0.1 0.0 0.2 0.2 0.1 3.8 0.1 15.0 14.9 15.0 15.0 15.0
15.0 15.0 15.0 15.0 15.0 15.0 15.0 15.0 15.0 15.0 15.0 15.0 15.0 15.0 15.0 15.0 15.0 15.0 15.0 15.0 10.3 6.1 7.8 15.0 15.0 15.0 15.0 15.0 15.0 15.0 1.0 0.1 0.1 0.2 0.1 0.1 0.1 0.1 0.0 0.1 2.2 11.7 15.0
15.0 15.0 15.0 15.0 15.0 15.0 15.0 15.0 15.0 15.0 15.0 15.0 15.0 14.9 15.0 15.0 15.0 15.0 15.0 15.0 15.0 15.0 10.7 14.9 15.0 15.0 15.0 15.0 15.0 5.1 7.7 15.0 4.2 0.2 0.1 0.3 0.2 0.1 0.2 4.8 0.2 0.1 6.4
15.0 15.0 15.0 15.0 10.7 15.0 14.2 15.0 15.0 15.0 15.0 15.0 13.7 4.2 10.0 15.0 15.0 15.0 15.0 10.7 15.0 15.0 15.0 15.0 15.0 15.0 15.0 15.0 15.0 12.1 15.0 15.0 15.0 15.0 10.7 1.5 0.9 2.2 0.3 0.1 0.3 0.3 0.2
15.0 15.0 15.0 15.0 15.0 15.0 15.0 15.0 15.0 15.0 15.0 15.0 15.0 15.0 15.0 15.0 15.0 15.0 15.0 15.0 15.0 15.0 15.0 15.0 15.0 15.0 15.0 15.0 15.0 15.0 15.0 12.3 15.0 15.0 10.4 13.9 5.7 5.7 0.4 0.2 0.1 0.1 0.2
15.0 15.0 15.0 15.0 15.0 15.0 15.0 15.0 15.0 15.0 15.0 15.0 15.0 15.0 15.0 15.0 15.0 15.0 15.0 15.0 15.0 15.0 15.0 15.0 15.0 15.0 15.0 15.0 15.0 15.0 15.0 5.6 1.1 2.9 2.6 1.6 1.0 2.2 5.1 3.0 1.6 0.3 0.4
15.0 15.0 15.0 15.0 15.0 15.0 15.0 15.0 15.0 15.0 15.0 15.0 15.0 15.0 15.0 15.0 15.0 15.0 15.0 15.0 15.0 15.0 15.0 15.0 15.0 15.0 15.0 15.0 15.0 15.0 15.0 15.0 10.3 2.6 0.8 0.3 0.6 0.3 2.2 7.4 9.2 9.6 0.8
15.0 15.0 15.0 15.0 15.0 15.0 15.0 15.0 15.0 15.0 15.0 15.0 15.0 15.0 15.0 15.0 15.0 15.0 15.0 15.0 15.0 15.0 15.0 15.0 15.0 15.0 15.0 15.0 15.0 15.0 15.0 15.0 15.0 12.0 9.3 2.9 15.0 15.0 15.0 15.0 9.1 15.0 15.0
15.0 15.0 15.0 15.0 15.0 15.0 15.0 15.0 15.0 15.0 15.0 15.0 15.0 15.0 15.0 15.0 15.0 15.0 15.0 15.0 15.0 15.0 15.0 15.0 15.0 15.0 15.0 15.0 15.0 15.0 15.0 15.0 15.0 15.0 15.0 15.0 15.0 15.0 15.0 15.0 15.0 15.0 15.0
15.0 15.0 15.0 15.0 15.0 15.0 15.0 15.0 15.0 15.0 15.0 15.0 15.0 15.0 15.0 15.0 15.0 15.0 15.0 15.0 15.0 15.0 15.0 15.0 15.0 15.0 15.0 15.0 15.0 15.0 15.0 15.0 15.0 15.0 15.0 15.0 15.0 15.0 15.0 15.0 14.8 15.0 15.0
15.0 15.0 15.0 15.0 15.0 15.0 15.0 15.0 15.0 15.0 15.0 11.9 9.4 15.0 15.0 15.0 15.0 15.0 15.0 15.0 15.0 15.0 15.0 15.0 15.0 15.0 15.0 15.0 15.0 15.0 15.0 15.0 15.0 15.0 15.0 15.0 15.0 15.0 15.0 15.0 15.0 3.6 14.8
15.0 15.0 15.0 15.0 15.0 15.0 15.0 15.0 15.0 15.0 15.0 7.3 15.0 15.0 15.0 15.0 15.0 12.6 14.5 14.3 13.2 15.0 6.2 5.7 12.9 15.0 15.0 14.7 15.0 15.0 15.0 15.0 15.0 15.0 15.0 15.0 15.0 15.0 15.0 15.0 15.0 15.0 15.0
15.0 15.0 15.0 15.0 15.0 15.0 15.0 5.3 1.4 15.0 15.0 15.0 15.0 15.0 15.0 15.0 15.0 15.0 15.0 15.0 15.0 15.0 7.6 15.0 15.0 15.0 15.0 13.7 15.0 15.0 4.5 11.8 14.4 15.0 15.0 15.0 15.0 15.0 15.0 15.0 15.0 15.0 15.0
15.0 15.0 15.0 15.0 15.0 15.0 15.0 15.0 5.9 2.1 4.8 6.3 13.8 15.0 15.0 15.0 15.0 15.0 15.0 15.0 14.3 15.0 7.1 5.8 7.9 15.0 15.0 15.0 12.4 14.7 15.0 4.1 1.6 1.2 1.6 4.8 15.0 15.0 15.0 15.0 15.0 15.0 15.0
15.0 15.0 15.0 15.0 15.0 15.0 15.0 14.9 15.0 6.0 15.0 15.0 15.0 15.0 15.0 15.0 15.0 15.0 15.0 15.0 15.0 15.0 15.0 15.0 12.4 14.6 10.3 13.5 15.0 15.0 15.0 15.0 4.0 2.4 11.8 15.0 11.3 11.4 13.8 15.0 15.0 15.0 15.0
15.0 15.0 15.0 15.0 15.0 15.0 15.0 12.8 15.0 14.1 15.0 15.0 15.0 15.0 15.0 15.0 15.0 10.6 7.1 15.0 15.0 15.0 15.0 10.5 3.8 2.2 2.3 3.2 12.0 15.0 15.0 10.9 4.1 15.0 15.0 15.0 13.4 2.8 5.9 15.0 15.0 13.6 13.3
15.0 15.0 15.0 15.0 15.0 15.0 15.0 15.0 15.0 15.0 15.0 15.0 15.0 15.0 15.0 14.7 15.0 13.6 13.4 15.0 15.0 15.0 15.0 11.1 3.7 2.2 2.4 11.3 9.9 15.0 11.8 5.7 11.7 15.0 15.0 15.0 15.0 15.0 15.0 15.0 15.0 15.0 13.6
15.0 15.0 15.0 15.0 15.0 15.0 15.0 15.0 15.0 15.0 15.0 15.0 13.7 15.0 15.0 15.0 15.0 14.9 12.7 15.0 10.2 15.0 15.0 15.0 4.5 6.1 6.5 15.0 15.0 15.0 15.0 15.0 15.0 15.0 15.0 15.0 15.0 15.0 15.0 15.0 15.0 11.9 15.0
15.0 15.0 15.0 15.0 15.0 13.7 15.0 15.0 15.0 15.0 15.0 15.0 15.0 13.9 11.3 15.0 8.0 9.8 7.3 15.0 12.6 4.9 14.4 15.0 15.0 15.0 10.1 15.0 12.5 15.0 6.2 12.8 15.0 14.8 14.9 13.3 15.0 15.0 15.0 15.0 15.0 13.9 13.2
15.0 15.0 15.0 15.0 13.4 15.0 15.0 15.0 15.0 15.0 15.0 15.0 14.7 12.6 5.1 0.3 0.4 1.5 0.8 4.6 13.5 15.0 15.0 15.0 14.8 15.0 15.0 15.0 15.0 7.7 15.0 15.0 15.0 15.0 14.8 13.9 14.9 15.0 15.0 12.0 14.7 8.9 12.3
15.0 15.0 15.0 15.0 15.0 15.0 15.0 15.0 15.0 15.0 15.0 15.0 14.8 6.9 3.5 0.9 0.3 0.2 0.2 0.6 13.5 15.0 15.0 15.0 15.0 4.0 4.0 15.0 15.0 15.0 12.0 3.6 15.0 15.0 11.7 15.0 15.0 14.7 15.0 12.8 10.8 14.1 14.5
15.0 15.0 15.0 15.0 15.0 15.0 15.0 15.0 15.0 14.8 15.0 15.0 4.0 1.4 0.5 0.2 0.2 0.2 0.5 1.8 6.8 15.0 15.0 15.0 12.6 7.9 15.0 15.0 15.0 4.2 4.5 4.4 5.3 5.2 8.2 15.0 15.0 13.8 9.0 8.5 8.5 7.8 4.1
15.0 15.0 15.0 9.4 14.3 2.1 4.2 4.1 4.1 5.6 5.2 4.2 1.0 0.1 0.1 0.2 0.5 1.0 1.6 2.2 13.1 15.0 9.7 10.5 3.1 4.8 15.0 14.8 6.1 4.4 3.6 4.7 2.2 1.6 4.1 15.0 13.9 8.3 4.9 4.8 5.9 5.5 5.9
15.0 15.0 15.0 6.0 4.9 10.3 5.2 4.1 4.0 1.8 0.5 0.3 0.3 0.3 0.3 0.5 0.5 1.1 1.5 2.1 4.1 8.6 6.9 4.6 13.3 15.0 15.0 13.8 13.5 1.4 1.6 2.2 2.5 7.6 12.9 15.0 5.3 6.3 4.4 5.5 7.0 5.9 5.2
15.0 13.0 15.0 15.0 4.7 4.1 4.0 1.2 0.9 0.7 0.6 1.0 0.7 0.6 0.5 0.7 1.2 1.3 1.6 2.6 14.0 15.0 15.0 15.0 7.1 3.8 14.2 15.0 12.5 9.7 2.5 2.6 5.7 15.0 15.0 12.5 3.7 3.8 2.7 3.4 3.6 4.3 5.4
15.0 15.0 14.4 4.7 4.1 4.0 1.8 1.4 1.5 1.0 0.9 0.6 0.5 0.7 1.5 1.5 1.8 1.8 2.9 15.0 15.0 15.0 15.0 15.0 15.0 14.6 11.9 15.0 2.8 1.4 4.0 4.1 13.5 15.0 4.7 3.4 3.1 3.4 2.0 2.1 2.4 3.3 4.5